Location: Presov
(49.0000°N, 21.2500°E)
Time: 09:46:36
(UTC+02:00)

ISS - Visible Passes

Search period start: 23 April 2024 00:00
Search period end: 03 May 2024 00:00
Orbit: 411 x 418 km, 51.6° (Epoch: 23 April)

Date Brightness Start Highest point End Pass type
(mag) Time Alt. Az. Time Alt. Az. Time Alt. Az.
23 Apr -2.4 04:44:41 10° SSW 04:47:40 31° SE 04:50:40 10° E visible
24 Apr -1.9 03:57:01 14° S 03:58:46 21° SE 04:01:21 10° E visible
25 Apr -1.4 03:09:46 14° SE 03:09:51 14° SE 03:11:36 10° ESE visible
25 Apr -3.6 04:42:45 10° SW 04:46:01 63° SSE 04:49:20 10° ENE visible
26 Apr -3.1 03:55:14 23° SSW 03:56:54 43° SSE 04:00:05 10° ENE visible
27 Apr -2.5 03:07:45 28° SE 03:07:45 28° SE 03:10:41 10° E visible
27 Apr -3.7 04:40:55 10° WSW 04:44:15 76° NNW 04:47:35 10° ENE visible
28 Apr -1.2 02:20:10 14° ESE 02:20:10 14° ESE 02:21:01 10° E visible
28 Apr -3.8 03:52:59 23° WSW 03:54:55 82° SSE 03:58:15 10° ENE visible
29 Apr -3.7 03:05:18 55° S 03:05:34 57° SSE 03:08:50 10° ENE visible
29 Apr -3.2 04:39:01 10° W 04:42:18 55° N 04:45:35 10° ENE visible
30 Apr -2.0 02:17:31 26° E 02:17:31 26° E 02:19:19 10° ENE visible
30 Apr -3.5 03:50:20 17° W 03:52:47 65° NNW 03:56:05 10° ENE visible
01 May -3.8 03:02:28 50° W 03:03:14 81° NNW 03:06:34 10° ENE visible
01 May -3.0 04:36:51 10° WNW 04:40:07 51° N 04:43:23 10° E visible
02 May -2.9 02:14:32 45° E 02:14:32 45° E 02:16:59 10° ENE visible
02 May -3.1 03:47:19 11° W 03:50:27 52° N 03:53:43 10° ENE visible
